[[{"header":{"parameterUnit":"m.s-1","parameterCategory":1,"la1":30.2991,"la2":30.254,"lo1":-89.0895,"lo2":-89.0444,"dy":0.0017,"dx":0.0017,"nx":28,"ny":28,"refTime":"2024-06-07T03:00:00:Z","depth":0,"parameterNumber":2,"parameterNumberName":"U-component_of_WINDS"},"data":[0,0,0,0,0,0,0,0,0,0,0,0,0,0,0,0,0,0,0,0,0,0,0,0,0,0,0,0,0,0,0,0,0,0,0,0,0,0,0,0,0,0,0,0,0,0,0,0,0,0,0,0,0,0,0,0,0,0,0.161,0.1611,0,0.1698,0.1699,0.17,0.1681,0.1679,0.1678,0.1676,0.1769,0.1773,0.1777,0,0,0,0,0,0,0,0,0,0,0,0,0,0.143,0.1433,0.161,0.1611,0.1612,0.1697,0.1699,0.17,0.1681,0.1679,0.1677,0.1675,0.1768,0.1773,0.1777,0,0,0,0,0,0,0,0,0,0,0,0,0,0.1512,0.1434,0.161,0.1613,0.1614,0.1697,0.1699,0.17,0.1682,0.1679,0.1677,0.1674,0.1766,0.1772,0.1778,0.1864,0,0,0.1796,0.1799,0,0,0,0,0,0,0,0,0.1507,0.1518,0.1611,0.1613,0.1614,0.1676,0.1669,0.1755,0.1682,0.1656,0.1676,0.1673,0.174,0.1748,0.177,0.1869,0.1873,0.1797,0.1801,0.1803,0.1805,0,0,0,0,0,0,0,0.1502,0.1515,0.1645,0.1613,0.1615,0.1611,0.162,0.1685,0.1711,0.1658,0.1657,0.1667,0.1741,0.1764,0.1772,0.1874,0.1797,0.1802,0.1806,0.1808,0.205,0.2052,0,0,0,0,0,0,0.1494,0.151,0.1642,0.1647,0.1553,0.1616,0.1626,0.1659,0.171,0.1716,0.167,0.1666,0.1755,0.1765,0.1775,0.1881,0.1803,0.1809,0.1812,0.2047,0.205,0.2053,0,0,0,0,0,0,0.149,0.1506,0.1638,0.1578,0.1595,0.1622,0.1658,0.1662,0.1685,0.1719,0.1723,0.1689,0.1754,0.1767,0.1843,0.1884,0.1811,0.1817,0.2044,0.2048,0.2052,0.2093,0,0,0,0,0,0,0.1485,0.1505,0.1537,0.1579,0.1598,0.1703,0.1661,0.1665,0.1695,0.1692,0.1738,0.1744,0.1753,0.1834,0.1849,0.1891,0.1822,0.204,0.2045,0.205,0.2088,0.2098,0.2107,0,0,0,0,0,0.1479,0.1545,0.1539,0.1555,0.1639,0.1705,0.1716,0.1725,0.1699,0.1732,0.1754,0.1742,0.1877,0.1842,0.1858,0.1903,0.2037,0.2044,0.205,0.2084,0.2096,0.2106,0,0,0,0,0,0,0.1508,0.1551,0.1544,0.1626,0.1662,0.1702,0.1744,0.1737,0.1782,0.1777,0.1787,0.1798,0.1875,0.1896,0.1856,0.199,0.1954,0.1964,0.1974,0.1986,0.1995,0.1989,0.1827,0,0,0,0,0,0.1524,0.1573,0.1608,0.1677,0.1696,0.1717,0.1746,0.1749,0.1788,0.1803,0.183,0.1869,0.192,0.1954,0.2003,0.2091,0.2102,0.213,0.2139,0.2147,0.2156,0.2206,0.222,0.2074,0.2074,0.2074,0,0,0.1557,0.1587,0.1617,0.1684,0.1712,0.1765,0.173,0.1786,0.1826,0.1812,0.1885,0.1907,0.1951,0.2033,0.2071,0.2054,0.2198,0.2155,0.216,0.2166,0.2214,0.2228,0.224,0.2078,0.2078,0.2077,0,0,0.1645,0.1672,0.1733,0.1762,0.1805,0.1819,0.1834,0.1875,0.1889,0.1962,0.1953,0.2001,0.2088,0.2121,0.2148,0.225,0.2241,0.2265,0.2315,0.2363,0.2375,0.2385,0.2423,0.2436,0.2274,0.2274,0.2274,0,0.1682,0.1759,0.1765,0.1823,0.1853,0.1843,0.1906,0.1934,0.1991,0.2013,0.1992,0.2103,0.2132,0.2223,0.2247,0.2269,0.2288,0.2261,0.2372,0.2383,0.2392,0.2429,0.2443,0.2277,0.2276,0.2276,0.2276,0,0.1803,0.1857,0.1901,0.1957,0.1992,0.2052,0.2068,0.2103,0.2104,0.212,0.2196,0.223,0.2286,0.2308,0.2309,0.24,0.2388,0.237,0.2333,0.2409,0.2443,0.2457,0.2281,0.228,0.2279,0.2278,0,0,0.1913,0.197,0.1987,0.2012,0.206,0.2102,0.2162,0.2217,0.2248,0.2288,0.234,0.2414,0.2398,0.243,0.2435,0.2477,0.2558,0.2454,0.2455,0.2474,0.2662,0.2677,0.2692,0.2552,0.2554,0.2556,0.2659,0,0.2006,0.2111,0.2119,0.2215,0.2266,0.2257,0.2309,0.2345,0.2362,0.2409,0.2428,0.2482,0.2455,0.2475,0.2516,0.2539,0.2596,0.2531,0.2602,0.2605,0.2593,0.271,0.2725,0.282,0.2672,0.2674,0.2676,0,0.213,0.2173,0.2274,0.2315,0.2337,0.2384,0.2435,0.2479,0.252,0.253,0.2565,0.2565,0.2628,0.2588,0.2677,0.2634,0.2663,0.2679,0.2683,0.2691,0.2646,0.2723,0.2851,0.2866,0.2697,0.2695,0.2694,0,0.2202,0.2286,0.2357,0.2379,0.2428,0.2462,0.2484,0.2523,0.2555,0.26,0.2622,0.2674,0.2703,0.2744,0.2758,0.2727,0.2847,0.2808,0.2859,0.2859,0.2886,0.2884,0.3022,0.2902,0.2902,0.2901,0.2901,0,0.2307,0.2369,0.239,0.2434,0.2505,0.2513,0.2583,0.2604,0.2638,0.2687,0.2682,0.2729,0.2743,0.2793,0.2804,0.2877,0.289,0.2901,0.2904,0.2903,0.2902,0.2923,0.2918,0.2905,0.2904,0.2904,0.2903,0,0.24,0.2416,0.2494,0.2534,0.2546,0.2596,0.2631,0.2675,0.2691,0.2753,0.2768,0.2795,0.2853,0.287,0.294,0.2948,0.3035,0.303,0.3021,0.3022,0.3072,0.3068,0.323,0.3252,0.3116,0.3117,0.3118,0,0.2467,0.2514,0.256,0.2592,0.2616,0.2667,0.2701,0.2711,0.2746,0.2797,0.2835,0.2892,0.2939,0.3033,0.3059,0.3113,0.3111,0.3164,0.3119,0.3117,0.3114,0.3112,0.3118,0.3173,0.3175,0.3176,0.3177,0,0.2584,0.259,0.2637,0.2688,0.2728,0.2768,0.2808,0.2835,0.2851,0.2891,0.295,0.2986,0.3058,0.3116,0.3171,0.3196,0.319,0.319,0.3205,0.3206,0.3199,0.3205,0.3046,0.3187,0.3186,0.3185,0.3185,0.3184,0.2667,0.271,0.2749,0.2802,0.2833,0.287,0.2913,0.2935,0.2984,0.3042,0.3046,0.311,0.3152,0.3225,0.3252,0.3304,0.3289,0.331,0.3316,0.3322,0.3327,0.3189,0.3314,0.3314,0.3314,0.3313,0.3313,0,0.2786,0.2811,0.286,0.2915,0.2957,0.2946,0.299,0.3027,0.3083,0.3121,0.3167,0.3236,0.3292,0.3323,0.3379,0.3415,0.3414,0.343,0.3428,0.3435,0.3336,0.3318,0.343,0.343,0.343,0.343,0.343,0.343,0.2853,0.2925,0.2936,0.3024,0.3048,0.3111,0.3136,0.3171,0.3202,0.3279,0.3325,0.3344,0.338,0.3439,0.3491,0.3499,0.3521,0.3539,0.3545,0.3453,0.3441,0.343,0.3413,0.3543,0.3543,0.3639,0.364,0.3641]},{"header":{"parameterUnit":"m.s-1","parameterCategory":1,"la1":30.2991,"la2":30.254,"lo1":-89.0895,"lo2":-89.0444,"dy":0.0017,"dx":0.0017,"nx":28,"ny":28,"refTime":"2024-06-07T03:00:00:Z","depth":0,"parameterNumber":3,"parameterNumberName":"V-component_of_WINDS"},"data":[0,0,0,0,0,0,0,0,0,0,0,0,0,0,0,0,0,0,0,0,0,0,0,0,0,0,0,0,0,0,0,0,0,0,0,0,0,0,0,0,0,0,0,0,0,0,0,0,0,0,0,0,0,0,0,0,0,0,-0.0215,-0.0216,0,-0.024,-0.024,-0.024,-0.0318,-0.032,-0.0322,-0.0324,-0.0347,-0.0346,-0.0345,0,0,0,0,0,0,0,0,0,0,0,0,0,-0.0235,-0.0234,-0.0215,-0.0216,-0.0216,-0.024,-0.024,-0.024,-0.0318,-0.032,-0.0322,-0.0324,-0.0348,-0.0346,-0.0345,0,0,0,0,0,0,0,0,0,0,0,0,0,-0.0239,-0.0234,-0.0215,-0.0258,-0.0262,-0.024,-0.024,-0.024,-0.0318,-0.032,-0.0323,-0.0325,-0.0348,-0.0347,-0.0345,-0.0284,0,0,-0.0341,-0.034,0,0,0,0,0,0,0,0,-0.0239,-0.0239,-0.0251,-0.0255,-0.0259,-0.0279,-0.0256,-0.0255,-0.0317,-0.0296,-0.0324,-0.0327,-0.0322,-0.0323,-0.0322,-0.0285,-0.0286,-0.034,-0.034,-0.0339,-0.0339,0,0,0,0,0,0,0,-0.0239,-0.0238,-0.0225,-0.0251,-0.0256,-0.0275,-0.0279,-0.0256,-0.0294,-0.0298,-0.0304,-0.0306,-0.0325,-0.0323,-0.0323,-0.0286,-0.0341,-0.0339,-0.0338,-0.0338,-0.0199,-0.0197,0,0,0,0,0,0,-0.0232,-0.0237,-0.0224,-0.0226,-0.0255,-0.0273,-0.0277,-0.027,-0.0295,-0.0301,-0.0304,-0.0309,-0.0324,-0.0325,-0.0324,-0.0253,-0.0339,-0.0338,-0.0337,-0.0202,-0.0199,-0.0196,0,0,0,0,0,0,-0.0233,-0.0231,-0.0223,-0.0233,-0.0234,-0.0269,-0.0261,-0.0269,-0.0267,-0.0299,-0.0306,-0.0295,-0.0326,-0.0326,-0.0293,-0.0255,-0.0337,-0.0336,-0.0205,-0.0201,-0.0197,-0.011,0,0,0,0,0,0,-0.0233,-0.023,-0.0207,-0.0232,-0.0233,-0.0192,-0.0259,-0.0267,-0.0264,-0.0272,-0.0292,-0.0298,-0.0329,-0.0295,-0.0292,-0.0254,-0.0334,-0.0209,-0.0203,-0.0199,-0.0117,-0.0104,-0.0093,0,0,0,0,0,-0.0233,-0.0182,-0.0206,-0.0204,-0.0205,-0.0189,-0.019,-0.0226,-0.0261,-0.0238,-0.0259,-0.0298,-0.026,-0.0291,-0.0288,-0.0249,-0.0211,-0.0205,-0.0199,-0.0122,-0.0106,-0.0093,0,0,0,0,0,0,-0.0151,-0.0186,-0.0213,-0.0168,-0.0175,-0.0203,-0.0175,-0.0208,-0.0205,-0.0213,-0.0258,-0.0261,-0.0221,-0.0233,-0.0266,-0.0191,-0.0242,-0.0235,-0.0185,-0.017,-0.0158,-0.0155,-0.0333,0,0,0,0,0,-0.0128,-0.0113,-0.0144,-0.0101,-0.0104,-0.0138,-0.0133,-0.016,-0.0169,-0.0173,-0.0191,-0.0198,-0.0188,-0.018,-0.0172,-0.012,-0.0124,-0.0092,-0.008,-0.007,-0.0062,-0.0034,-0.0019,-0.0175,-0.0175,-0.0175,0,0,-0.008,-0.0097,-0.0084,-0.0085,-0.0094,-0.0076,-0.014,-0.0119,-0.0107,-0.017,-0.0139,-0.0152,-0.0163,-0.012,-0.0101,-0.0128,-0.002,-0.0062,-0.0053,-0.0051,-0.0026,-0.0011,0.0002,-0.0171,-0.0172,-0.0172,0,0,0.0017,0.0006,0.004,0.0033,0.002,-0.0004,0.0005,-0.0018,-0.0029,0.0001,-0.0046,-0.0032,-0.0013,-0.0019,-0.0019,0.0076,0.0041,0.008,0.0144,0.0172,0.0184,0.0195,0.0231,0.0244,0.0087,0.0087,0.0087,0,0.0079,0.0104,0.0062,0.0087,0.0088,0.0031,0.0067,0.0061,0.0052,0.0055,0.0025,0.0047,0.0035,0.0078,0.0101,0.0102,0.0111,0.0083,0.0186,0.0196,0.0205,0.0239,0.0252,0.0092,0.0091,0.0091,0.009,0,0.0181,0.0198,0.0228,0.022,0.0225,0.0255,0.0219,0.0228,0.02,0.018,0.0211,0.0195,0.0199,0.0207,0.018,0.0246,0.023,0.0193,0.0142,0.0226,0.0257,0.0269,0.0099,0.0097,0.0096,0.0094,0,0,0.0331,0.03,0.0311,0.0308,0.0289,0.0302,0.0329,0.0333,0.0342,0.0337,0.036,0.0377,0.0343,0.0343,0.0314,0.0339,0.0417,0.0299,0.0299,0.0324,0.0491,0.052,0.0535,0.0393,0.0395,0.0397,0.0492,0,0.0424,0.0469,0.0433,0.0485,0.0501,0.0447,0.0471,0.0462,0.0444,0.0455,0.0435,0.0448,0.0402,0.0402,0.0423,0.0403,0.0451,0.0395,0.0415,0.0416,0.0422,0.0551,0.0582,0.0673,0.0504,0.0506,0.0507,0,0.054,0.0541,0.0594,0.0573,0.0578,0.06,0.0601,0.0612,0.0602,0.0586,0.0586,0.0551,0.0577,0.0525,0.056,0.0524,0.0529,0.0521,0.0523,0.0526,0.0469,0.0559,0.0701,0.0715,0.0526,0.0524,0.0523,0,0.0646,0.066,0.0694,0.0692,0.0668,0.0685,0.0675,0.0662,0.0667,0.0667,0.067,0.0673,0.0676,0.068,0.0647,0.0611,0.0688,0.0632,0.0677,0.0678,0.0697,0.0697,0.0844,0.0698,0.0697,0.0697,0.0697,0,0.0756,0.0791,0.0742,0.0763,0.0801,0.0759,0.0798,0.0783,0.0771,0.0789,0.0742,0.076,0.0714,0.0728,0.0702,0.0737,0.0737,0.0727,0.072,0.0733,0.0734,0.0737,0.0731,0.0701,0.07,0.0699,0.0699,0,0.0882,0.085,0.0884,0.0857,0.0852,0.0881,0.0859,0.0878,0.0856,0.0879,0.0882,0.0848,0.0862,0.0829,0.0837,0.082,0.087,0.0852,0.0874,0.0869,0.0917,0.0914,0.1073,0.1093,0.0932,0.0933,0.0934,0,0.0955,0.0981,0.0958,0.0966,0.0959,0.0973,0.0978,0.0937,0.0944,0.0934,0.0954,0.0963,0.0969,0.0993,0.0969,0.0976,0.0959,0.1014,0.0959,0.0972,0.0962,0.0962,0.0965,0.1026,0.1028,0.103,0.1031,0,0.1089,0.1072,0.108,0.1083,0.1089,0.109,0.1087,0.1096,0.1053,0.1063,0.1076,0.108,0.1088,0.1099,0.11,0.109,0.1055,0.1048,0.1059,0.1073,0.1086,0.1082,0.0907,0.1045,0.1044,0.1043,0.1042,0.1041,0.1192,0.1213,0.12,0.1211,0.1204,0.1203,0.122,0.12,0.121,0.1213,0.1188,0.1207,0.1196,0.1194,0.1188,0.1203,0.1178,0.1194,0.1198,0.1203,0.1212,0.1082,0.1203,0.1202,0.1202,0.1201,0.1201,0,0.1325,0.1314,0.1324,0.1322,0.1331,0.1294,0.1289,0.1299,0.1316,0.1309,0.1315,0.1331,0.134,0.1318,0.1324,0.134,0.1324,0.1344,0.1343,0.1342,0.1233,0.1224,0.1357,0.1357,0.1357,0.1357,0.1357,0.1357,0.1396,0.143,0.1412,0.1442,0.143,0.1448,0.1449,0.1448,0.1442,0.1461,0.1469,0.1453,0.144,0.1445,0.1453,0.1446,0.1452,0.1478,0.1466,0.1365,0.135,0.1335,0.1326,0.1479,0.1479,0.1574,0.1574,0.1575]}]]